Regional Weather Roundup
Issued by NWS

Home | Current Version | Previous Version | Text Only | Print | Product List | Glossary Off
Versions: 1 2 3 4 5 6 7 8 9 10 11 12 13 14 15 16 17 18 19 20 21 22 23 24 25 26 27 28 29 30 31 32 33 34 35 36 37 38 39 40 41 42 43 44 45 46 47 48 49 50

000
ASUS43 KMPX 201110
RWRMN
WEATHER ROUNDUP FOR MINNESOTA
NATIONAL WEATHER SERVICE TWIN CITIES/CHANHASSEN MN
500 AM CST SAT DEC 20 2014


NOTE: "FAIR" INDICATES FEW OR NO CLOUDS BELOW 12,000 FEET WITH NO
SIGNIFICANT WEATHER AND/OR OBSTRUCTIONS TO VISIBILITY. N/A MEANS
CURRENT SKY AND/OR WEATHER CONDITIONS ARE NOT AVAILABLE.

MNZ060>063-068>070-201200-
   Twin Cities Metro

CITY           SKY/WX    TMP DP  RH WIND       PRES   REMARKS
TWIN CITIES    CLOUDY    29  25  85 SE8       30.15F FOG     WCI  21
ST PAUL        CLOUDY    30  26  85 S13       30.17F WCI  20
CRYSTAL        CLOUDY    30  26  85 S7        30.14S WCI  23
BLAINE         CLOUDY    30  28  93 S6        30.14S WCI  24
LAKEVILLE      MOCLDY    28  27  93 S6        30.15S FOG     WCI  22
EDEN PRAIRIE   CLOUDY    30  26  85 S9        30.13F FOG     WCI  22
SOUTH ST PAUL  CLOUDY    31  26  84 S5        30.15F WCI  26
LAKE ELMO      CLOUDY    30  28  93 SE6       30.16F WCI  24
$$
MNZ001>005-007-008-013>017-022>024-027-028-201200-
   Northwest Minnesota

CITY           SKY/WX    TMP DP  RH WIND       PRES   REMARKS
BEMIDJI        CLOUDY    29  28  99 S5        30.02S FOG     WCI  23
HALLOCK        CLOUDY    28  28 100 CALM      29.99S FOG
ROSEAU         CLOUDY    28  23  80 SE6       30.00S HAZE    WCI  22
WARROAD        CLOUDY    27  23  86 S5        30.01S FOG     WCI  21
THIEF RVR FALL CLOUDY    28  28 100 SW12      30.00S WCI  18
CROOKSTON      CLOUDY    28  28 100 S10       30.02S FOG     WCI  19
FOSSTON        CLOUDY    28  27  93 S9        30.01S FOG     WCI  20
DETROIT LAKES  CLOUDY    30  30 100 SW8       30.03F FOG     WCI  23
MOORHEAD       CLOUDY    30  30 100 S8        30.04S WCI  23
PARK RAPIDS    CLOUDY    30  28  92 S10       30.03S FOG     WCI  21
MAHNOMEN       CLOUDY    29  28  96 SW12      30.01F FOG     WCI  20
$$
MNZ006-009>011-018-025>026-201200-
   North Central Minnesota

CITY           SKY/WX    TMP DP  RH WIND       PRES   REMARKS
BAUDETTE       CLOUDY    26  24  92 VRB5      30.01F FOG     WCI  20
FLAG ISLAND    CLOUDY    27  25  93 S9        30.01R FOG     WCI  17
INTL FALLS     LGT SNOW  26  23  88 SE6       30.05S FOG     WCI  19
WASKISH        CLOUDY    28  27  93 CALM      30.03S FOG
BIG FORK       LGT SNOW  27  25  93 SE3       30.05F
LONGVILLE      CLOUDY    28  28 100 S6        30.05S FOG     WCI  22
GRAND RAPIDS   CLOUDY    27  25  93 SE8       30.06S WCI  18
CRANE LAKE     LGT SNOW  25  25 100 SE3       30.10S
ORR            MIX PCPN  25  21  86 SE5       30.05S WCI  19
COOK           LGT SNOW  25  23  93 CALM      30.08F
WALKER         CLOUDY    29  28  96 S7        30.03S FOG     WCI  22
$$
MNZ012-019>021-037-201200-
   Northeast Minnesota

CITY           SKY/WX    TMP DP  RH WIND       PRES   REMARKS
DULUTH         CLOUDY    26  23  88 SE7       30.11S FOG     WCI  18
ELY            LGT SNOW  25  23  93 S5        30.10S WCI  19
HIBBING        LGT SNOW  26  22  84 SE6       30.08S FOG     WCI  19
EVELETH        LGT SNOW  27  25  93 S6        30.10S WCI  20
DULUTH HARBOR  CLOUDY    28  25  86 CALM      30.17S
TWO HARBORS    CLOUDY    28  25  86 S6        30.13S WCI  22
SILVER BAY     LGT SNOW  28  27  93 CALM      30.13S
GRAND MARAIS     N/A     32  27  81 S9        30.18S WCI  24
G MARAIS ARPRT CLOUDY    25  21  86 S3        30.12S FOG
$$
MNZ029>031-032-039>041-046>048-054>057-064-201200-
   West Central Minnesota

CITY           SKY/WX    TMP DP  RH WIND       PRES   REMARKS
FERGUS FALLS   CLOUDY    28  28 100 SW12      30.07S FOG     WCI  18
WHEATON        CLOUDY    28  27  93 S8        30.06F WCI  20
MORRIS         CLOUDY    30  28  93 S9        30.05S FOG     WCI  22
ALEXANDRIA     CLOUDY    29  27  92 S16       30.06S FOG     WCI  17
ELBOW LAKE     CLOUDY    29  28  96 SW15      30.04S FOG     WCI  18
WADENA         CLOUDY    28  27  93 S9        30.04S FOG     WCI  20
GLENWOOD       CLOUDY    28  28 100 S16       30.06F FOG     WCI  17
APPLETON       CLOUDY    32  28  86 SW5       30.07S WCI  27
BENSON         CLOUDY    30  27  86 SW10      30.08S FOG     WCI  21
ORTONVILLE     CLOUDY    30  27  86 SW5       30.06S WCI  25
MADISON        CLEAR     34  32  93 SW6       30.07S WCI  29
WILLMAR        CLOUDY    32  28  86 S5        30.09S FOG     WCI  27
$$
MNZ033>034-036-042>043-049>051-058-059-201200-
   Central Minnesota

CITY           SKY/WX    TMP DP  RH WIND       PRES   REMARKS
ST CLOUD       CLOUDY    32  29  88 S10       30.10F FOG     WCI  24
SAUK CENTRE    CLOUDY    30  28  94 S12       30.08S FOG     WCI  20
PAYNESVILLE    CLOUDY    28  27  95 SE8       30.09S FOG     WCI  20
AITKIN         MIX PCPN  30  27  86 S7        30.07S WCI  23
PINE RIVER     CLOUDY    28  28 100 S6        30.08F FOG     WCI  22
BRAINERD       CLOUDY    29  28  96 S9        30.08S FOG     WCI  20
STAPLES        CLOUDY    28  28 100 S7        30.05F FOG     WCI  21
LONG PRAIRIE   CLOUDY    30  28  93 S13       30.06F FOG     WCI  20
LITTLE FALLS   CLOUDY    32  28  86 S7        30.09S FOG     WCI  26
LITCHFIELD     CLOUDY    32  32 100 S5        30.10F FOG     WCI  27
BUFFALO        CLOUDY    30  28  92 SE6       30.13S FOG     WCI  24
MAPLE LAKE     CLOUDY    31  31  97 SE8       30.12F FOG     WCI  24
$$
MNZ037-044-045-052-053-201200-
   East Central Minnesota

CITY           SKY/WX    TMP DP  RH WIND       PRES   REMARKS
PRINCETON      CLOUDY    30  28  93 SE7       30.12F FOG     WCI  23
MORA           CLOUDY    28  25  86 S9        30.14F WCI  20
CAMBRIDGE      MOCLDY    30  23  74 S5        30.12S HAZE    WCI  25
RUSH CITY      CLOUDY    28  25  88 S5        30.14S WCI  23
MOOSE LAKE     CLOUDY    28  27  93 S6        30.11S WCI  22
HINCKLEY       CLOUDY    30  27  86 CALM      30.13F
CLOQUET        CLOUDY    27  25  93 SE3       30.11S FOG
MCGREGOR       CLOUDY    28  28 100 S8        30.10S WCI  20
$$
MNZ071>073-080-081-089-090-097-098-201200-
   Southwest Minnesota

CITY           SKY/WX    TMP DP  RH WIND       PRES   REMARKS
MONTEVIDEO     CLOUDY    30  30 100 SW8       30.09R FOG     WCI  23
GRANITE FALLS  CLOUDY    31  29  90 S9        30.09S WCI  23
CANBY          CLOUDY    31  29  92 SW5       30.07S FOG     WCI  27
MARSHALL       CLOUDY    30  27  86 SW16      30.07S WCI  19
REDWOOD FALLS  CLOUDY    31  28  89 S10       30.09F WCI  22
OLIVIA         CLOUDY    32  30  93 S9        30.08F WCI  24
PIPESTONE      CLOUDY    30  28  93 SW5       30.04S FOG     WCI  25
WINDOM         CLOUDY    30  28  93 S7        30.08S FOG     WCI  23
WORTHINGTON    CLOUDY    28  28 100 S10       30.08R WCI  19
JACKSON        CLOUDY    30  28  93 S9        30.09S WCI  22
TRACY          CLOUDY    32  30  91 SW10      30.07S WCI  24
SLAYTON        CLOUDY    30  29  99 S5        30.06S FOG     WCI  25
$$
MNZ065>067-074>077-082>085-091>093-201200-
   South Central Minnesota

CITY           SKY/WX    TMP DP  RH WIND       PRES   REMARKS
MANKATO        CLOUDY    30  27  86 S10       30.13F VSB 3/4 WCI  21
NEW ULM        CLOUDY    30  30 100 S9        30.11F WCI  22
ST JAMES       CLOUDY    30  27  86 S12       30.12F WCI  21
FAIRMONT       CLOUDY    28  25  86 S12       30.10F WCI  18
GLENCOE        CLOUDY    32  31  98 SE7       30.12S FOG     WCI  25
FARIBAULT      CLOUDY    30  27  86 S6        30.15F FOG     WCI  24
OWATONNA       MOCLDY    28  27  93 S7        30.15F FOG     WCI  21
WASECA         CLOUDY    30  28  93 S9        30.16S FOG     WCI  22
ALBERT LEA     FOG       28  28 100 S6        30.14S VSB 1/2 WCI  22
$$
MNZ078>079-086>088-094>096-201200-
   Southeast Minnesota

CITY           SKY/WX    TMP DP  RH WIND       PRES   REMARKS
ROCHESTER      CLOUDY    27  25  92 S10       30.16F FOG     WCI  17
RED WING       CLOUDY    30  25  80 SE6       30.18S WCI  24
STANTON        CLOUDY    31  26  84 S7        30.15F FOG     WCI  24
DODGE CENTER   CLOUDY    28  27  93 S8        30.15S FOG     WCI  20
WINONA         CLOUDY    30  25  80 CALM      30.22S
AUSTIN         CLOUDY    27  27 100 S6        30.15S FOG     WCI  20
PRESTON        CLOUDY    26  25  94 S5        30.17F FOG     WCI  21
$$
ABBREVIATIONS USED IN REMARKS
   TC - TEMPERATURES IN CELSIUS
  WCI - WIND CHILL INDEX
   HX - HEAT INDEX
  VSB - VISIBILITY
$$



USA.gov is the U.S. government's official web portal to all federal, state and local government web resources and services.